星链-36513(STARLINK-36513)

导读 | 豆包AI

STARLINK-36513是美国SpaceX星链星座的卫星,于2026年1月12日由猎鹰9号火箭在佛罗里达卡纳维拉尔角发射,属于星链6-97任务批次,最终被部署进入低地球轨道。 作为星链星座扩容的一部分,该卫星延续了星链先进的技术设计,将参与构建全球高速低延迟卫星互联网,为地面偏远地区、海上以及航空场景提供宽带接入服务,目前星链已成为全球规模最大的低轨通信卫星星座。

基本信息
目录编号:
67429
目录名称:
STARLINK-36513
国际标识:
2026-005AB
轨道中心:
EARTH
卫星名称:
星链-36513
卫星全名:
星链-36513(STARLINK-36513)
卫星状态:
在轨 (已飞行133 天)
发射日期:
2026-01-12 UTC
国别 :
美国 (US)
星等 :
--
轨道信息
数据来源 国际轨道数据
星历时间: 2026-05-25T10:20:17+0800
7小时前
查看轨道信息
半长轴: 6861.114km
偏心率: 0.000056
轨道倾角: 42.999°
近地点辐角 302.360°
升交点赤经 166.329°
平近点角 57.720°
近地点: 482.592km
远地点: 483.362km
周期: 94.265分钟
每日圈数: 15.276042
详细信息
固有亮度:
5
最大亮度:
2.5
卫星平台:
Starlink V1.0
覆盖范围:
全球
运营商:
太空探索技术公司
运营商所在国:
美国
制造商(研发单位):
太空探索技术公司
制造商所在国:
美国
使用方式:
暂无
卫星简介
Starlink 计划是 SpaceX 推出的全球卫星互联网项目,通过发射低轨道卫星,为全球尤其是偏远地区提供高速、低延迟的互联网服务。自 2019 年起,Starlink 已部署数千颗卫星,旨在缩小全球数字鸿沟,推动互联网普及。该项目还为军事、航空等行业提供通信支持,带来广泛经济效益。
2D轨道图
3D轨道图
轨道高度分析图
轨道倾角分析图
轨道综合分析图
查看轨道综合分析图